Year,Month,Day,Hour,Minute,Value (Times are PST for temperature in C)
2011,08,24,00,00,12.50
2011,08,24,00,01,12.50
2011,08,24,00,02,12.50
2011,08,24,00,03,12.50
2011,08,24,00,04,12.50
2011,08,24,00,05,12.50
2011,08,24,00,06,12.50
2011,08,24,00,07,12.50
2011,08,24,00,08,12.50
2011,08,24,00,09,12.50
2011,08,24,00,10,12.40
2011,08,24,00,11,12.40
2011,08,24,00,12,12.40
2011,08,24,00,13,12.40
2011,08,24,00,14,12.40
2011,08,24,00,15,12.40
2011,08,24,00,16,12.30
2011,08,24,00,17,12.30
2011,08,24,00,18,12.30
2011,08,24,00,19,12.30
2011,08,24,00,20,12.30
2011,08,24,00,21,12.30
2011,08,24,00,22,12.30
2011,08,24,00,23,12.30
2011,08,24,00,24,12.30
2011,08,24,00,25,12.30
2011,08,24,00,26,12.20
2011,08,24,00,27,12.20
2011,08,24,00,28,12.20
2011,08,24,00,29,12.20
2011,08,24,00,30,12.20
2011,08,24,00,31,12.20
2011,08,24,00,32,12.10
2011,08,24,00,33,12.10
2011,08,24,00,34,12.10
2011,08,24,00,35,12.00
2011,08,24,00,36,12.00
2011,08,24,00,37,12.00
2011,08,24,00,38,12.00
2011,08,24,00,39,12.00
2011,08,24,00,40,12.00
2011,08,24,00,41,12.00
2011,08,24,00,42,12.00
2011,08,24,00,43,12.00
2011,08,24,00,44,12.00
2011,08,24,00,45,12.00
2011,08,24,00,46,12.00
2011,08,24,00,47,12.00
2011,08,24,00,48,11.90
2011,08,24,00,49,11.90
2011,08,24,00,50,11.90
2011,08,24,00,51,12.00
2011,08,24,00,52,12.00
2011,08,24,00,53,12.00
2011,08,24,00,54,12.00
2011,08,24,00,55,12.00
2011,08,24,00,56,12.00
2011,08,24,00,57,12.00
2011,08,24,00,58,11.90
2011,08,24,00,59,11.90
2011,08,24,01,00,11.90
2011,08,24,01,01,11.90
2011,08,24,01,02,11.90
2011,08,24,01,03,11.80
2011,08,24,01,04,11.80
2011,08,24,01,05,11.80
2011,08,24,01,06,11.80
2011,08,24,01,07,11.80
2011,08,24,01,08,11.80
2011,08,24,01,09,11.80
2011,08,24,01,10,11.80
2011,08,24,01,11,11.80
2011,08,24,01,12,11.80
2011,08,24,01,13,11.80
2011,08,24,01,14,11.80
2011,08,24,01,15,11.80
2011,08,24,01,16,11.80
2011,08,24,01,17,11.80
2011,08,24,01,18,11.80
2011,08,24,01,19,11.80
2011,08,24,01,20,11.80
2011,08,24,01,21,11.80
2011,08,24,01,22,11.80
2011,08,24,01,23,11.80
2011,08,24,01,24,11.80
2011,08,24,01,25,11.80
2011,08,24,01,26,11.80
2011,08,24,01,27,11.80
2011,08,24,01,28,11.80
2011,08,24,01,29,11.80
2011,08,24,01,30,11.80
2011,08,24,01,31,11.80
2011,08,24,01,32,11.80
2011,08,24,01,33,11.80
2011,08,24,01,34,11.80
2011,08,24,01,35,11.80
2011,08,24,01,36,11.80
2011,08,24,01,37,11.80
2011,08,24,01,38,11.80
2011,08,24,01,39,11.80
2011,08,24,01,40,11.80
2011,08,24,01,41,11.80
2011,08,24,01,42,11.80
2011,08,24,01,43,11.80
2011,08,24,01,44,11.80
2011,08,24,01,45,11.80
2011,08,24,01,46,11.80
2011,08,24,01,47,11.80
2011,08,24,01,48,11.80
2011,08,24,01,49,11.80
2011,08,24,01,50,11.80
2011,08,24,01,51,11.80
2011,08,24,01,52,11.80
2011,08,24,01,53,11.80
2011,08,24,01,54,11.80
2011,08,24,01,55,11.80
2011,08,24,01,56,11.80
2011,08,24,01,57,11.80
2011,08,24,01,58,11.90
2011,08,24,01,59,11.90
2011,08,24,02,00,11.90
2011,08,24,02,01,11.90
2011,08,24,02,02,11.80
2011,08,24,02,03,11.80
2011,08,24,02,04,11.80
2011,08,24,02,05,11.80
2011,08,24,02,06,11.80
2011,08,24,02,07,11.80
2011,08,24,02,08,11.80
2011,08,24,02,09,11.80
2011,08,24,02,10,11.80
2011,08,24,02,11,11.80
2011,08,24,02,12,11.80
2011,08,24,02,13,11.80
2011,08,24,02,14,11.80
2011,08,24,02,15,11.80
2011,08,24,02,16,11.80
2011,08,24,02,17,11.80
2011,08,24,02,18,11.80
2011,08,24,02,19,11.80
2011,08,24,02,20,11.80
2011,08,24,02,21,11.90
2011,08,24,02,22,11.90
2011,08,24,02,23,11.90
2011,08,24,02,24,11.90
2011,08,24,02,25,11.90
2011,08,24,02,26,11.90
2011,08,24,02,27,11.90
2011,08,24,02,28,11.90
2011,08,24,02,29,11.90
2011,08,24,02,30,11.90
2011,08,24,02,31,11.90
2011,08,24,02,32,11.90
2011,08,24,02,33,11.90
2011,08,24,02,34,11.90
2011,08,24,02,35,11.90
2011,08,24,02,36,11.90
2011,08,24,02,37,11.90
2011,08,24,02,38,11.90
2011,08,24,02,39,11.90
2011,08,24,02,40,12.00
2011,08,24,02,41,12.00
2011,08,24,02,42,12.00
2011,08,24,02,43,12.00
2011,08,24,02,44,12.00
2011,08,24,02,45,12.10
2011,08,24,02,46,12.10
2011,08,24,02,47,12.10
2011,08,24,02,48,12.10
2011,08,24,02,49,12.10
2011,08,24,02,50,12.10
2011,08,24,02,51,12.20
2011,08,24,02,52,12.20
2011,08,24,02,53,12.20
2011,08,24,02,54,12.20
2011,08,24,02,55,12.20
2011,08,24,02,56,12.20
2011,08,24,02,57,12.20
2011,08,24,02,58,12.20
2011,08,24,02,59,12.20
2011,08,24,03,00,12.20
2011,08,24,03,01,12.20
2011,08,24,03,02,12.20
2011,08,24,03,03,12.20
2011,08,24,03,04,12.20
2011,08,24,03,05,12.10
2011,08,24,03,06,12.10
2011,08,24,03,07,12.10
2011,08,24,03,08,12.10
2011,08,24,03,09,12.10
2011,08,24,03,10,12.10
2011,08,24,03,11,12.10
2011,08,24,03,12,12.20
2011,08,24,03,13,12.20
2011,08,24,03,14,12.20
2011,08,24,03,15,12.20
2011,08,24,03,16,12.20
2011,08,24,03,17,12.30
2011,08,24,03,18,12.30
2011,08,24,03,19,12.30
2011,08,24,03,20,12.30
2011,08,24,03,21,12.30
2011,08,24,03,22,12.30
2011,08,24,03,23,12.30
2011,08,24,03,24,12.30
2011,08,24,03,25,12.30
2011,08,24,03,26,12.30
2011,08,24,03,27,12.30
2011,08,24,03,28,12.30
2011,08,24,03,29,12.30
2011,08,24,03,30,12.30
2011,08,24,03,31,12.30
2011,08,24,03,32,12.30
2011,08,24,03,33,12.30
2011,08,24,03,34,12.30
2011,08,24,03,35,12.30
2011,08,24,03,36,12.20
2011,08,24,03,37,12.20
2011,08,24,03,38,12.20
2011,08,24,03,39,12.10
2011,08,24,03,40,12.10
2011,08,24,03,41,12.10
2011,08,24,03,42,12.10
2011,08,24,03,43,12.00
2011,08,24,03,44,12.00
2011,08,24,03,45,12.00
2011,08,24,03,46,12.00
2011,08,24,03,47,12.00
2011,08,24,03,48,12.00
2011,08,24,03,49,12.00
2011,08,24,03,50,12.00
2011,08,24,03,51,12.00
2011,08,24,03,52,12.00
2011,08,24,03,53,12.00
2011,08,24,03,54,12.00
2011,08,24,03,55,12.00
2011,08,24,03,56,12.00
2011,08,24,03,57,12.00
2011,08,24,03,58,12.10
2011,08,24,03,59,12.10
2011,08,24,04,00,12.20
2011,08,24,04,01,12.20
2011,08,24,04,02,12.30
2011,08,24,04,03,12.30
2011,08,24,04,04,12.30
2011,08,24,04,05,12.30
2011,08,24,04,06,12.30
2011,08,24,04,07,12.30
2011,08,24,04,08,12.30
2011,08,24,04,09,12.40
2011,08,24,04,10,12.40
2011,08,24,04,11,12.40
2011,08,24,04,12,12.40
2011,08,24,04,13,12.50
2011,08,24,04,14,12.50
2011,08,24,04,15,12.50
2011,08,24,04,16,12.60
2011,08,24,04,17,12.60
2011,08,24,04,18,12.60
2011,08,24,04,19,12.70
2011,08,24,04,20,12.70
2011,08,24,04,21,12.70
2011,08,24,04,22,12.70
2011,08,24,04,23,12.80
2011,08,24,04,24,12.80
2011,08,24,04,25,12.80
2011,08,24,04,26,12.80
2011,08,24,04,27,12.80
2011,08,24,04,28,12.80
2011,08,24,04,29,12.80
2011,08,24,04,30,12.90
2011,08,24,04,31,12.90
2011,08,24,04,32,12.90
2011,08,24,04,33,12.90
2011,08,24,04,34,13.00
2011,08,24,04,35,13.00
2011,08,24,04,36,13.00
2011,08,24,04,37,13.00
2011,08,24,04,38,13.00
2011,08,24,04,39,13.00
2011,08,24,04,40,13.00
2011,08,24,04,41,13.00
2011,08,24,04,42,13.00
2011,08,24,04,43,13.00
2011,08,24,04,44,13.00
2011,08,24,04,45,13.10
2011,08,24,04,46,13.10
2011,08,24,04,47,13.10
2011,08,24,04,48,13.10
2011,08,24,04,49,13.10
2011,08,24,04,50,13.10
2011,08,24,04,51,13.10
2011,08,24,04,52,13.10
2011,08,24,04,53,13.10
2011,08,24,04,54,13.10
2011,08,24,04,55,13.10
2011,08,24,04,56,13.10
2011,08,24,04,57,13.10
2011,08,24,04,58,13.10
2011,08,24,04,59,13.10
2011,08,24,05,00,13.10
2011,08,24,05,01,13.10
2011,08,24,05,02,13.10
2011,08,24,05,03,13.10
2011,08,24,05,04,13.10
2011,08,24,05,05,13.10
2011,08,24,05,06,13.10
2011,08,24,05,07,13.10
2011,08,24,05,08,13.10
2011,08,24,05,09,13.10
2011,08,24,05,10,13.10
2011,08,24,05,11,13.10
2011,08,24,05,12,13.10
2011,08,24,05,13,13.10
2011,08,24,05,14,13.10
2011,08,24,05,15,13.10
2011,08,24,05,16,13.10
2011,08,24,05,17,13.10
2011,08,24,05,18,13.10
2011,08,24,05,19,13.10
2011,08,24,05,20,13.10
2011,08,24,05,21,13.10
2011,08,24,05,22,13.10
2011,08,24,05,23,13.10
2011,08,24,05,24,13.10
2011,08,24,05,25,13.10
2011,08,24,05,26,13.10
2011,08,24,05,27,13.10
2011,08,24,05,28,13.10
2011,08,24,05,29,13.10
2011,08,24,05,30,13.10
2011,08,24,05,31,13.10
2011,08,24,05,32,13.10
2011,08,24,05,33,13.10
2011,08,24,05,34,13.10
2011,08,24,05,35,13.10
2011,08,24,05,36,13.10
2011,08,24,05,37,13.10
2011,08,24,05,38,13.00
2011,08,24,05,39,13.10
2011,08,24,05,40,13.10
2011,08,24,05,41,13.10
2011,08,24,05,42,13.10
2011,08,24,05,43,13.10
2011,08,24,05,44,13.10
2011,08,24,05,45,13.10
2011,08,24,05,46,13.10
2011,08,24,05,47,13.10
2011,08,24,05,48,13.10
2011,08,24,05,49,13.10
2011,08,24,05,50,13.20
2011,08,24,05,51,13.20
2011,08,24,05,52,13.20
2011,08,24,05,53,13.20
2011,08,24,05,54,13.20
2011,08,24,05,55,13.30
2011,08,24,05,56,13.30
2011,08,24,05,57,13.30
2011,08,24,05,58,13.30
2011,08,24,05,59,13.30
2011,08,24,06,00,13.30
2011,08,24,06,01,13.30
2011,08,24,06,02,13.30
2011,08,24,06,03,13.30
2011,08,24,06,04,13.30
2011,08,24,06,05,13.30
2011,08,24,06,06,13.30
2011,08,24,06,07,13.30
2011,08,24,06,08,13.30
2011,08,24,06,09,13.30
2011,08,24,06,10,13.30
2011,08,24,06,11,13.30
2011,08,24,06,12,13.30
2011,08,24,06,13,13.30
2011,08,24,06,14,13.30
2011,08,24,06,15,13.30
2011,08,24,06,16,13.30
2011,08,24,06,17,13.30
2011,08,24,06,18,13.30
2011,08,24,06,19,13.40
2011,08,24,06,20,13.40
2011,08,24,06,21,13.40
2011,08,24,06,22,13.40
2011,08,24,06,23,13.40
2011,08,24,06,24,13.40
2011,08,24,06,25,13.40
2011,08,24,06,26,13.40
2011,08,24,06,27,13.40
2011,08,24,06,28,13.40
2011,08,24,06,29,13.40
2011,08,24,06,30,13.40
2011,08,24,06,31,13.50
2011,08,24,06,32,13.50
2011,08,24,06,33,13.50
2011,08,24,06,34,13.50
2011,08,24,06,35,13.50
2011,08,24,06,36,13.50
2011,08,24,06,37,13.50
2011,08,24,06,38,13.50
2011,08,24,06,39,13.60
2011,08,24,06,40,13.60
2011,08,24,06,41,13.60
2011,08,24,06,42,13.60
2011,08,24,06,43,13.60
2011,08,24,06,44,13.60
2011,08,24,06,45,13.60
2011,08,24,06,46,13.60
2011,08,24,06,47,13.60
2011,08,24,06,48,13.60
2011,08,24,06,49,13.60
2011,08,24,06,50,13.70
2011,08,24,06,51,13.70
2011,08,24,06,52,13.70
2011,08,24,06,53,13.70
2011,08,24,06,54,13.70
2011,08,24,06,55,13.70
2011,08,24,06,56,13.70
2011,08,24,06,57,13.70
2011,08,24,06,58,13.80
2011,08,24,06,59,13.80
2011,08,24,07,00,13.80
2011,08,24,07,01,13.80
2011,08,24,07,02,13.80
2011,08,24,07,03,13.80
2011,08,24,07,04,13.80
2011,08,24,07,05,13.80
2011,08,24,07,06,13.90
2011,08,24,07,07,13.90
2011,08,24,07,08,13.90
2011,08,24,07,09,13.90
2011,08,24,07,10,13.90
2011,08,24,07,11,13.90
2011,08,24,07,12,13.90
2011,08,24,07,13,13.90
2011,08,24,07,14,13.90
2011,08,24,07,15,13.90
2011,08,24,07,16,13.90
2011,08,24,07,17,14.00
2011,08,24,07,18,14.00
2011,08,24,07,19,14.00
2011,08,24,07,20,14.00
2011,08,24,07,21,14.00
2011,08,24,07,22,14.00
2011,08,24,07,23,14.00
2011,08,24,07,24,14.10
2011,08,24,07,25,14.10
2011,08,24,07,26,14.10
2011,08,24,07,27,14.10
2011,08,24,07,28,14.10
2011,08,24,07,29,14.10
2011,08,24,07,30,14.20
2011,08,24,07,31,14.20
2011,08,24,07,32,14.20
2011,08,24,07,33,14.20
2011,08,24,07,34,14.20
2011,08,24,07,35,14.20
2011,08,24,07,36,14.20
2011,08,24,07,37,14.20
2011,08,24,07,38,14.20
2011,08,24,07,39,14.20
2011,08,24,07,40,14.20
2011,08,24,07,41,14.20
2011,08,24,07,42,14.20
2011,08,24,07,43,14.20
2011,08,24,07,44,14.20
2011,08,24,07,45,14.20
2011,08,24,07,46,14.30
2011,08,24,07,47,14.30
2011,08,24,07,48,14.30
2011,08,24,07,49,14.40
2011,08,24,07,50,14.40
2011,08,24,07,51,14.40
2011,08,24,07,52,14.50
2011,08,24,07,53,14.50
2011,08,24,07,54,14.50
2011,08,24,07,55,14.50
2011,08,24,07,56,14.60
2011,08,24,07,57,14.60
2011,08,24,07,58,14.60
2011,08,24,07,59,14.60
2011,08,24,08,00,14.70
2011,08,24,08,01,14.70
2011,08,24,08,02,14.70
2011,08,24,08,03,14.70
2011,08,24,08,04,14.80
2011,08,24,08,05,14.80
2011,08,24,08,06,14.80
2011,08,24,08,07,14.80
2011,08,24,08,08,14.80
2011,08,24,08,09,14.80
2011,08,24,08,10,14.80
2011,08,24,08,11,14.80
2011,08,24,08,12,14.80
2011,08,24,08,13,14.80
2011,08,24,08,14,14.80
2011,08,24,08,15,14.80
2011,08,24,08,16,14.80
2011,08,24,08,17,14.90
2011,08,24,08,18,14.90
2011,08,24,08,19,14.90
2011,08,24,08,20,14.90
2011,08,24,08,21,14.90
2011,08,24,08,22,14.90
2011,08,24,08,23,14.90
2011,08,24,08,24,14.90
2011,08,24,08,25,15.00
2011,08,24,08,26,15.00
2011,08,24,08,27,15.10
2011,08,24,08,28,15.10
2011,08,24,08,29,15.10
2011,08,24,08,30,15.10
2011,08,24,08,31,15.10
2011,08,24,08,32,15.20
2011,08,24,08,33,15.20
2011,08,24,08,34,15.20
2011,08,24,08,35,15.30
2011,08,24,08,36,15.30
2011,08,24,08,37,15.30
2011,08,24,08,38,15.30
2011,08,24,08,39,15.30
2011,08,24,08,40,15.40
2011,08,24,08,41,15.40
2011,08,24,08,42,15.40
2011,08,24,08,43,15.50
2011,08,24,08,44,15.50
2011,08,24,08,45,15.50
2011,08,24,08,46,15.60
2011,08,24,08,47,15.60
2011,08,24,08,48,15.60
2011,08,24,08,49,15.60
2011,08,24,08,50,15.60
2011,08,24,08,51,15.60
2011,08,24,08,52,15.60
2011,08,24,08,53,15.70
2011,08,24,08,54,15.70
2011,08,24,08,55,15.70
2011,08,24,08,56,15.70
2011,08,24,08,57,15.80
2011,08,24,08,58,15.80
2011,08,24,08,59,15.80
2011,08,24,09,00,15.80
2011,08,24,09,01,15.80
2011,08,24,09,02,15.90
2011,08,24,09,03,15.90
2011,08,24,09,04,16.10
2011,08,24,09,05,16.10
2011,08,24,09,06,16.10
2011,08,24,09,07,16.10
2011,08,24,09,08,16.20
2011,08,24,09,09,16.20
2011,08,24,09,10,16.30
2011,08,24,09,11,16.30
2011,08,24,09,12,16.40
2011,08,24,09,13,16.40
2011,08,24,09,14,16.40
2011,08,24,09,15,16.40
2011,08,24,09,16,16.50
2011,08,24,09,17,16.60
2011,08,24,09,18,16.70
2011,08,24,09,19,16.70
2011,08,24,09,20,16.80
2011,08,24,09,21,16.90
2011,08,24,09,22,17.00
2011,08,24,09,23,17.10
2011,08,24,09,24,17.20
2011,08,24,09,25,17.30
2011,08,24,09,26,17.40
2011,08,24,09,27,17.50
2011,08,24,09,28,17.50
2011,08,24,09,29,17.70
2011,08,24,09,30,17.70
2011,08,24,09,31,17.80
2011,08,24,09,32,17.80
2011,08,24,09,33,17.90
2011,08,24,09,34,17.90
2011,08,24,09,35,18.00
2011,08,24,09,36,18.10
2011,08,24,09,37,18.20
2011,08,24,09,38,18.20
2011,08,24,09,39,18.20
2011,08,24,09,40,18.20
2011,08,24,09,41,18.20
2011,08,24,09,42,18.20
2011,08,24,09,43,18.20
2011,08,24,09,44,18.20
2011,08,24,09,45,18.20
2011,08,24,09,46,18.30
2011,08,24,09,47,18.30
2011,08,24,09,48,18.30
2011,08,24,09,49,18.30
2011,08,24,09,50,18.30
2011,08,24,09,51,18.30
2011,08,24,09,52,18.40
2011,08,24,09,53,18.40
2011,08,24,09,54,18.50
2011,08,24,09,55,18.50
2011,08,24,09,56,18.60
2011,08,24,09,57,18.60
2011,08,24,09,58,18.60
2011,08,24,09,59,18.70
2011,08,24,10,00,18.70
2011,08,24,10,01,18.80
2011,08,24,10,02,18.90
2011,08,24,10,03,19.10
2011,08,24,10,04,19.10
2011,08,24,10,05,19.30
2011,08,24,10,06,19.40
2011,08,24,10,07,19.50
2011,08,24,10,08,19.60
2011,08,24,10,09,19.70
2011,08,24,10,10,19.80
2011,08,24,10,11,19.90
2011,08,24,10,12,20.00
2011,08,24,10,13,20.10
2011,08,24,10,14,20.20
2011,08,24,10,15,20.20
2011,08,24,10,16,20.20
2011,08,24,10,17,20.10
2011,08,24,10,18,19.90
2011,08,24,10,19,19.90
2011,08,24,10,20,19.90
2011,08,24,10,21,19.90
2011,08,24,10,22,19.80
2011,08,24,10,23,19.80
2011,08,24,10,24,19.70
2011,08,24,10,25,19.60
2011,08,24,10,26,19.50
2011,08,24,10,27,19.50
2011,08,24,10,28,19.40
2011,08,24,10,29,19.50
2011,08,24,10,30,19.60
2011,08,24,10,31,19.70
2011,08,24,10,32,19.80
2011,08,24,10,33,19.90
2011,08,24,10,34,19.90
2011,08,24,10,35,19.90
2011,08,24,10,36,20.00
2011,08,24,10,37,20.10
2011,08,24,10,38,20.10
2011,08,24,10,39,20.10
2011,08,24,10,40,20.10
2011,08,24,10,41,20.20
2011,08,24,10,42,20.10
2011,08,24,10,43,20.10
2011,08,24,10,44,20.00
2011,08,24,10,45,19.90
2011,08,24,10,46,19.80
2011,08,24,10,47,19.80
2011,08,24,10,48,19.80
2011,08,24,10,49,19.70
2011,08,24,10,50,19.70
2011,08,24,10,51,19.80
2011,08,24,10,52,19.80
2011,08,24,10,53,19.80
2011,08,24,10,54,19.70
2011,08,24,10,55,19.70
2011,08,24,10,56,19.70
2011,08,24,10,57,19.70
2011,08,24,10,58,19.60
2011,08,24,10,59,19.60
2011,08,24,11,00,19.60
2011,08,24,11,01,19.50
2011,08,24,11,02,19.40
2011,08,24,11,03,19.40
2011,08,24,11,04,19.40
2011,08,24,11,05,19.40
2011,08,24,11,06,19.30
2011,08,24,11,07,19.30
2011,08,24,11,08,19.30
2011,08,24,11,09,19.30
2011,08,24,11,10,19.30
2011,08,24,11,11,19.20
2011,08,24,11,12,19.20
2011,08,24,11,13,19.10
2011,08,24,11,14,19.10
2011,08,24,11,15,19.00
2011,08,24,11,16,18.90
2011,08,24,11,17,18.80
2011,08,24,11,18,18.70
2011,08,24,11,19,18.60
2011,08,24,11,20,18.50
2011,08,24,11,21,18.30
2011,08,24,11,22,18.20
2011,08,24,11,23,18.20
2011,08,24,11,24,18.20
2011,08,24,11,25,18.20
2011,08,24,11,26,18.20
2011,08,24,11,27,18.20
2011,08,24,11,28,18.20
2011,08,24,11,29,18.40
2011,08,24,11,30,18.50
2011,08,24,11,31,18.60
2011,08,24,11,32,18.70
2011,08,24,11,33,18.80
2011,08,24,11,34,19.00
2011,08,24,11,35,19.10
2011,08,24,11,36,19.20
2011,08,24,11,37,19.30
2011,08,24,11,38,19.30
2011,08,24,11,39,19.20
2011,08,24,11,40,19.10
2011,08,24,11,41,19.10
2011,08,24,11,42,19.10
2011,08,24,11,43,19.10
2011,08,24,11,44,19.20
2011,08,24,11,45,19.20
2011,08,24,11,46,19.30
2011,08,24,11,47,19.40
2011,08,24,11,48,19.40
2011,08,24,11,49,19.40
2011,08,24,11,50,19.50
2011,08,24,11,51,19.60
2011,08,24,11,52,19.70
2011,08,24,11,53,19.70
2011,08,24,11,54,19.70
2011,08,24,11,55,19.70
2011,08,24,11,56,19.60
2011,08,24,11,57,19.50
2011,08,24,11,58,19.40
2011,08,24,11,59,19.10
2011,08,24,12,00,19.00
2011,08,24,12,01,18.90
2011,08,24,12,02,18.90
2011,08,24,12,03,18.80
2011,08,24,12,04,18.80
2011,08,24,12,05,18.80
2011,08,24,12,06,18.80
2011,08,24,12,07,18.80
2011,08,24,12,08,18.90
2011,08,24,12,09,18.90
2011,08,24,12,10,18.90
2011,08,24,12,11,19.00
2011,08,24,12,12,19.20
2011,08,24,12,13,19.40
2011,08,24,12,14,19.40
2011,08,24,12,15,19.50
2011,08,24,12,16,19.70
2011,08,24,12,17,19.80
2011,08,24,12,18,20.00
2011,08,24,12,19,20.10
2011,08,24,12,20,20.20
2011,08,24,12,21,20.20
2011,08,24,12,22,20.30
2011,08,24,12,23,20.30
2011,08,24,12,24,20.30
2011,08,24,12,25,20.20
2011,08,24,12,26,20.30
2011,08,24,12,27,20.40
2011,08,24,12,28,20.40
2011,08,24,12,29,20.50
2011,08,24,12,30,20.50
2011,08,24,12,31,20.60
2011,08,24,12,32,20.60
2011,08,24,12,33,20.50
2011,08,24,12,34,20.60
2011,08,24,12,35,20.60
2011,08,24,12,36,20.60
2011,08,24,12,37,20.60
2011,08,24,12,38,20.50
2011,08,24,12,39,20.30
2011,08,24,12,40,20.20
2011,08,24,12,41,20.10
2011,08,24,12,42,19.90
2011,08,24,12,43,19.70
2011,08,24,12,44,19.50
2011,08,24,12,45,19.40
2011,08,24,12,46,19.30
2011,08,24,12,47,19.10
2011,08,24,12,48,19.10
2011,08,24,12,49,19.00
2011,08,24,12,50,19.00
2011,08,24,12,51,19.10
2011,08,24,12,52,19.10
2011,08,24,12,53,19.00
2011,08,24,12,54,18.90
2011,08,24,12,55,18.90
2011,08,24,12,56,18.90
2011,08,24,12,57,18.90
2011,08,24,12,58,18.90
2011,08,24,12,59,18.80
2011,08,24,13,00,18.50
2011,08,24,13,01,18.20
2011,08,24,13,02,18.10
2011,08,24,13,03,17.90
2011,08,24,13,04,17.90
2011,08,24,13,05,17.80
2011,08,24,13,06,17.80
2011,08,24,13,07,17.90
2011,08,24,13,08,17.90
2011,08,24,13,09,17.90
2011,08,24,13,10,18.00
2011,08,24,13,11,18.10
2011,08,24,13,12,18.20
2011,08,24,13,13,18.30
2011,08,24,13,14,18.30
2011,08,24,13,15,18.40
2011,08,24,13,16,18.50
2011,08,24,13,17,18.50
2011,08,24,13,18,18.50
2011,08,24,13,19,18.50
2011,08,24,13,20,18.60
2011,08,24,13,21,18.60
2011,08,24,13,22,18.70
2011,08,24,13,23,18.80
2011,08,24,13,24,18.90
2011,08,24,13,25,19.10
2011,08,24,13,26,19.10
2011,08,24,13,27,19.10
2011,08,24,13,28,19.10
2011,08,24,13,29,19.10
2011,08,24,13,30,19.10
2011,08,24,13,31,19.10
2011,08,24,13,32,19.20
2011,08,24,13,33,19.30
2011,08,24,13,34,19.20
2011,08,24,13,35,19.20
2011,08,24,13,36,19.10
2011,08,24,13,37,19.00
2011,08,24,13,38,18.90
2011,08,24,13,39,18.80
2011,08,24,13,40,18.70
2011,08,24,13,41,18.60
2011,08,24,13,42,18.50
2011,08,24,13,43,18.40
2011,08,24,13,44,18.30
2011,08,24,13,45,18.40
2011,08,24,13,46,18.40
2011,08,24,13,47,18.40
2011,08,24,13,48,18.40
2011,08,24,13,49,18.50
2011,08,24,13,50,18.50
2011,08,24,13,51,18.50
2011,08,24,13,52,18.50
2011,08,24,13,53,18.50
2011,08,24,13,54,18.50
2011,08,24,13,55,18.50
2011,08,24,13,56,18.50
2011,08,24,13,57,18.50
2011,08,24,13,58,18.50
2011,08,24,13,59,18.40
2011,08,24,14,00,18.40
2011,08,24,14,01,18.30
2011,08,24,14,02,18.30
2011,08,24,14,03,18.30
2011,08,24,14,04,18.30
2011,08,24,14,05,18.30
2011,08,24,14,06,18.20
2011,08,24,14,07,18.20
2011,08,24,14,08,18.20
2011,08,24,14,09,18.20
2011,08,24,14,10,18.10
2011,08,24,14,11,18.20
2011,08,24,14,12,18.10
2011,08,24,14,13,18.10
2011,08,24,14,14,17.90
2011,08,24,14,15,17.90
2011,08,24,14,16,17.90
2011,08,24,14,17,17.90
2011,08,24,14,18,17.90
2011,08,24,14,19,18.00
2011,08,24,14,20,18.10
2011,08,24,14,21,18.10
2011,08,24,14,22,18.20
2011,08,24,14,23,18.20
2011,08,24,14,24,18.30
2011,08,24,14,25,18.30
2011,08,24,14,26,18.40
2011,08,24,14,27,18.40
2011,08,24,14,28,18.40
2011,08,24,14,29,18.50
2011,08,24,14,30,18.50
2011,08,24,14,31,18.50
2011,08,24,14,32,18.60
2011,08,24,14,33,18.60
2011,08,24,14,34,18.60
2011,08,24,14,35,18.50
2011,08,24,14,36,18.50
2011,08,24,14,37,18.40
2011,08,24,14,38,18.30
2011,08,24,14,39,18.20
2011,08,24,14,40,18.20
2011,08,24,14,41,18.20
2011,08,24,14,42,18.20
2011,08,24,14,43,18.20
2011,08,24,14,44,18.20
2011,08,24,14,45,18.20
2011,08,24,14,46,18.10
2011,08,24,14,47,18.10
2011,08,24,14,48,18.10
2011,08,24,14,49,18.10
2011,08,24,14,50,18.10
2011,08,24,14,51,18.10
2011,08,24,14,52,18.10
2011,08,24,14,53,18.10
2011,08,24,14,54,18.10
2011,08,24,14,55,18.00
2011,08,24,14,56,17.90
2011,08,24,14,57,17.90
2011,08,24,14,58,17.90
2011,08,24,14,59,17.80
2011,08,24,15,00,17.80
2011,08,24,15,01,17.80
2011,08,24,15,02,17.80
2011,08,24,15,03,17.90
2011,08,24,15,04,17.90
2011,08,24,15,05,17.90
2011,08,24,15,06,17.90
2011,08,24,15,07,17.90
2011,08,24,15,08,17.90
2011,08,24,15,09,17.90
2011,08,24,15,10,17.90
2011,08,24,15,11,18.00
2011,08,24,15,12,18.10
2011,08,24,15,13,18.10
2011,08,24,15,14,18.20
2011,08,24,15,15,18.20
2011,08,24,15,16,18.20
2011,08,24,15,17,18.20
2011,08,24,15,18,18.20
2011,08,24,15,19,18.20
2011,08,24,15,20,18.20
2011,08,24,15,21,18.20
2011,08,24,15,22,18.20
2011,08,24,15,23,18.20
2011,08,24,15,24,18.10
2011,08,24,15,25,18.10
2011,08,24,15,26,18.10
2011,08,24,15,27,18.10
2011,08,24,15,28,18.10
2011,08,24,15,29,18.10
2011,08,24,15,30,18.20
2011,08,24,15,31,18.20
2011,08,24,15,32,18.30
2011,08,24,15,33,18.30
2011,08,24,15,34,18.40
2011,08,24,15,35,18.50
2011,08,24,15,36,18.60
2011,08,24,15,37,18.60
2011,08,24,15,38,18.70
2011,08,24,15,39,18.70
2011,08,24,15,40,18.80
2011,08,24,15,41,18.90
2011,08,24,15,42,19.10
2011,08,24,15,43,19.20
2011,08,24,15,44,19.20
2011,08,24,15,45,19.30
2011,08,24,15,46,19.40
2011,08,24,15,47,19.50
2011,08,24,15,48,19.50
2011,08,24,15,49,19.60
2011,08,24,15,50,19.80
2011,08,24,15,51,19.90
2011,08,24,15,52,20.10
2011,08,24,15,53,20.20
2011,08,24,15,54,20.30
2011,08,24,15,55,20.50
2011,08,24,15,56,20.50
2011,08,24,15,57,20.60
2011,08,24,15,58,20.70
2011,08,24,15,59,20.80
2011,08,24,16,00,20.80
2011,08,24,16,01,20.90
2011,08,24,16,02,20.90
2011,08,24,16,03,20.90
2011,08,24,16,04,20.90
2011,08,24,16,05,20.90
2011,08,24,16,06,21.00
2011,08,24,16,07,21.00
2011,08,24,16,08,21.00
2011,08,24,16,09,21.10
2011,08,24,16,10,21.10
2011,08,24,16,11,21.20
2011,08,24,16,12,21.20
2011,08,24,16,13,21.30
2011,08,24,16,14,21.30
2011,08,24,16,15,21.30
2011,08,24,16,16,21.30
2011,08,24,16,17,21.30
2011,08,24,16,18,21.30
2011,08,24,16,19,21.30
2011,08,24,16,20,21.40
2011,08,24,16,21,21.50
2011,08,24,16,22,21.60
2011,08,24,16,23,21.60
2011,08,24,16,24,21.70
2011,08,24,16,25,21.70
2011,08,24,16,26,21.80
2011,08,24,16,27,21.80
2011,08,24,16,28,21.80
2011,08,24,16,29,21.80
2011,08,24,16,30,21.90
2011,08,24,16,31,21.90
2011,08,24,16,32,21.80
2011,08,24,16,33,21.90
2011,08,24,16,34,21.90
2011,08,24,16,35,22.00
2011,08,24,16,36,22.10
2011,08,24,16,37,22.00
2011,08,24,16,38,22.00
2011,08,24,16,39,22.00
2011,08,24,16,40,22.00
2011,08,24,16,41,22.00
2011,08,24,16,42,22.00
2011,08,24,16,43,22.00
2011,08,24,16,44,22.00
2011,08,24,16,45,22.00
2011,08,24,16,46,22.10
2011,08,24,16,47,22.10
2011,08,24,16,48,22.20
2011,08,24,16,49,22.10
2011,08,24,16,50,22.00
2011,08,24,16,51,22.00
2011,08,24,16,52,22.00
2011,08,24,16,53,21.90
2011,08,24,16,54,22.00
2011,08,24,16,55,22.00
2011,08,24,16,56,22.00
2011,08,24,16,57,22.10
2011,08,24,16,58,22.10
2011,08,24,16,59,22.10
2011,08,24,17,00,22.10
2011,08,24,17,01,22.10
2011,08,24,17,02,22.00
2011,08,24,17,03,22.00
2011,08,24,17,04,22.00
2011,08,24,17,05,21.90
2011,08,24,17,06,22.00
2011,08,24,17,07,22.00
2011,08,24,17,08,22.10
2011,08,24,17,09,22.20
2011,08,24,17,10,22.30
2011,08,24,17,11,22.50
2011,08,24,17,12,22.60
2011,08,24,17,13,22.70
2011,08,24,17,14,22.80
2011,08,24,17,15,22.90
2011,08,24,17,16,22.90
2011,08,24,17,17,23.00
2011,08,24,17,18,23.10
2011,08,24,17,19,23.10